(2015 HM10) |
Classification: Apollo [NEO] SPK-ID: 3717042 |
[ hide orbit diagram ]
For accurate long-term ephemerides, please instead use our Horizons system.This orbit viewer was implemented using two-body methods, and hence should not be used for determining accurate long-term trajectories (over several years or decades) or planetary encounter circumstances.
Orbital Elements at Epoch 2459000.5 (2020-May-31.0) TDB
Reference: JPL 38 (heliocentric ecliptic J2000)
Element | Value | Uncertainty (1-sigma) | Units |
e | .6017933558749317 | 2.8727e-09 | |
a | 2.531174387789192 | 2.7158e-09 | au |
q | 1.007930458656859 | 7.0611e-09 | au |
i | 1.464413662089084 | 2.4043e-06 | deg |
node | 283.1785506292528 | 1.6356e-05 | deg |
peri | 353.669218920228 | 1.7976e-05 | deg |
M | 80.92311805715315 | 1.3793e-06 | deg |
tp | 2458669.862860209580 (2019-Jul-05.36286021) | 5.4658e-06 | TDB |
period | 1470.894512992999 4.03 | 2.3673e-06 6.481e-09 | d yr |
n | .2447490264053445 | 3.9391e-10 | deg/d |
Q | 4.054418316921526 | 4.3502e-09 | au |
|
| | Orbit Determination Parameters
Additional Information
|
[ show covariance matrix ]
Physical Parameter Table
Parameter |
Symbol |
Value |
Units |
Sigma |
Reference |
Notes |
absolute magnitude |
H |
23.6 |
|
n/a |
E2015L50 |
|
rotation period |
rot_per |
0.3761 |
h |
n/a |
LCDB (Rev. 2020-October); Warner et al., 2009 |
Published Reference List: [Thirouin, A.; Moskovitz, N.; Binzel, R.P.; Christensen, E.; et al. (2016) Astron. J. 152, A163.] [Warner, B.D.; Ryan, W.H. (2016) Minor Planet Bull. 43, 30-31.] |
|
[ show close-approach data ]
|